Regional Weather Roundup
Issued by NWS Albany, NY

Home | Current Version | Previous Version | Graphics & Text | Print | Product List | Glossary Off
Versions: 1 2 3 4 5 6 7 8 9 10 11 12 13 14 15 16 17 18 19 20 21 22 23 24 25 26 27 28 29 30 31 32 33 34 35 36 37 38 39 40 41 42 43 44 45 46 47 48 49 50

000
ASUS41 KALY 211510
RWRALY

NEW YORK STATE HOURLY WEATHER ROUNDUP
NATIONAL WEATHER SERVICE ALBANY NY
1000 AM EST TUE FEB 21 2017

NOTE: "FAIR" INDICATES FEW OR NO CLOUDS BELOW 12,000 FEET WITH NO
SIGNIFICANT WEATHER AND/OR NO OBSTRUCTIONS TO VISIBILITY.

NYZ032-033-038>043-046>054-057>066-NYZ062>081-082-084-211600-
EAST


CITY           SKY/WX    TMP DP  RH WIND       PRES   REMARKS
ALBANY         PTSUNNY   31  17  56 SE6       30.34F WCI  25
GLENS FALLS    MOSUNNY   29  19  66 CALM      30.34F
POUGHKEEPSIE   CLOUDY    32  16  51 CALM      30.37F
NEWBURGH       PTSUNNY   32  18  55 CALM      30.37S
MONTGOMERY     MOSUNNY   34  17  50 CALM      30.35F
WHITE PLAINS   CLOUDY    38  16  40 S5        30.35F WCI  34
ISLIP          PTSUNNY   41  20  43 SE6       30.37F
NEW YORK CITY  PTSUNNY   40  22  48 NE8       30.38S WCI  34
CENTRAL PARK   MOSUNNY   40  20  44 CALM      30.39F
$$

NYZ005>009-017-018-044>046-055-056-211600-
CENTRAL


CITY           SKY/WX    TMP DP  RH WIND       PRES   REMARKS
FULTON         CLOUDY    34  17  50 SE9G20    30.15F WCI  27
SYRACUSE       CLOUDY    35  19  52 E9        30.18F WCI  28
ROME           CLOUDY    32  18  56 SE14      30.26F WCI  22
ELMIRA         CLOUDY    41  17  38 S5        30.19F
BINGHAMTON     CLOUDY    33  12  41 SE13      30.20F WCI  24
MONTICELLO     MOSUNNY   32  16  51 SE7       30.31F WCI  26
$$

NYZ026>034-041>043-087-211600-
NORTH


CITY           SKY/WX    TMP DP  RH WIND       PRES   REMARKS
WATERTOWN      CLOUDY    41  14  33 S8        30.14F
FORT DRUM      NOT AVBL
OGDENSBURG     FAIR      35  19  52 E5        30.17F WCI  30
MASSENA        MOSUNNY   28  20  71 NE6       30.21F WCI  22
SARANAC LAKE   CLOUDY    26  13  57 S3        30.15F
PLATTSBURGH    CLOUDY    30  22  72 S12       30.24F WCI  20
$$

NYZ001>004-010>016-019>021-085-211600-
WEST


CITY           SKY/WX    TMP DP  RH WIND       PRES   REMARKS
NIAGARA FALLS  CLOUDY    49  26  41 S12       30.02F
BUFFALO        CLOUDY    47  26  44 S7        30.02F
DUNKIRK        CLOUDY    50  28  42 SW18G25   30.02F
JAMESTOWN      MOSUNNY   45  23  42 S14G20    30.05F
WELLSVILLE     CLOUDY    42  17  36 S10G20    30.12F
ROCHESTER      CLOUDY    46  21  37 S15G23    30.06F
PENN YAN       CLOUDY    40  16  37 S13G24    30.13F WCI  32
$$

             KEY
       WCI = WIND CHILL INDEX
       VSB = VISIBILITY
       HX  = HEAT INDEX
$$



USA.gov is the U.S. government's official web portal to all federal, state and local government web resources and services.